星链-34014 (STARLINK-34014)

导读

STARLINK-34014是美国SpaceX公司星链(Starlink)低轨通信星座的量产卫星,于2025年5月13日发射入轨。卫星采用平板设计,搭载Ku、Ka波段通信载荷与光学星间链路,以氪基霍尔推进器实现轨道维持和离轨,具备自主避撞能力。它运行于近地轨道,服务全球宽带互联网接入,寿命末期将主动脱轨再入大气层焚毁,单星设计寿命约5-7年,是星链全球星座组网的重要组成部分。

Basic Information
目录编号:
63942
目录名称:
STARLINK-34014
国际标识:
2025-098S
轨道中心:
EARTH
卫星名称:
星链-34014
卫星全名:
星链-34014 (STARLINK-34014)
卫星状态:
在轨 (已飞行479 天)
发射日期:
2025-05-13 UTC
国别 :
美国 (US)
星等 :
--
Orbit Information
数据来源 国际轨道数据
星历时间: 2026-09-04T12:00:02+0800
7小时前
查看轨道信息
半长轴: 6862.235km
偏心率: 0.0002351
轨道倾角: 70.001°
近地点辐角 310.640°
升交点赤经 184.052°
平近点角 164.251°
近地点: 482.484km
远地点: 485.712km
周期: 94.288分钟
每日圈数: 15.272299
Detailed Information
固有亮度:
5
最大亮度:
2.5
卫星平台:
Starlink V1.0
覆盖范围:
全球
运营商:
太空探索技术公司
运营商所在国:
美国
制造商(研发单位):
太空探索技术公司
制造商所在国:
美国
使用方式:
暂无
Satellite Introduction
Starlink 计划是 SpaceX 推出的全球卫星互联网项目,通过发射低轨道卫星,为全球尤其是偏远地区提供高速、低延迟的互联网服务。自 2019 年起,Starlink 已部署数千颗卫星,旨在缩小全球数字鸿沟,推动互联网普及。该项目还为军事、航空等行业提供通信支持,带来广泛经济效益。
2D Orbit Map
3D Orbit Map
Orbit Altitude Analysis Chart
Orbit Inclination Analysis Chart
Orbit Comprehensive Analysis Chart
View Comprehensive Chart
Conjunction Data List
Event ID Objects TCA Miss Dist (km) Collision Risk Probability Collision Risk Index (CRI) Action
CDM_260904-232906-394206-878821
2026-09-04T
23:29:39+0000
0.916 km
远距离
3.154736E-5 中风险 0.65
CDM_260904-155704-830106-394221
2026-09-04T
15:57:29+0000
1.044 km
极远距离
2.149834E-5 中风险 0.62
CDM_260904-173104-830106-394221
2026-09-04T
17:31:29+0000
1.496 km
极远距离
6.229882E-6 低风险 0.51
CDM_260904-230106-394206-445421
2026-09-04T
23:01:00+0000
1.699 km
极远距离
4.178524E-6 低风险 0.47
CDM_260904-015906-394206-522021
2026-09-04T
01:59:07+0000
1.703 km
极远距离
4.077794E-6 低风险 0.47
CDM_260903-110905-725406-394221
2026-09-03T
11:09:30+0000
1.633 km
极远距离
3.764681E-6 低风险 0.47
CDM_260904-202306-394206-890321
2026-09-04T
20:23:19+0000
1.927 km
极远距离
2.73353E-6 低风险 0.44
CDM_260831-084406-394206-722021
2026-08-31T
08:44:46+0000
2.857 km
极远距离
1.285301E-6 低风险 0.37
CDM_260831-053406-394206-722021
2026-08-31T
05:34:04+0000
2.906 km
极远距离
1.256557E-6 低风险 0.37
CDM_260905-022905-937806-394221
2026-09-05T
02:29:28+0000
2.563 km
极远距离
9.250072E-7 极低风险 0.34